www.pogodaiklimat.ru

Погода и климат >> Архив погоды >> Япония >> Hiroshima


АРХИВ ПОГОДЫ в Hiroshima

Время (UTC), дата Ветер
(напр.,м/с)
 
Видим.   Явления Облачность Т
(С)
Тd
(С)
f
(%)
Тe
(С)
Тes
(С)
Комфортность P
(гПа)
Po
(гПа)
Тmin
(С)
Tmax
(С)
R
(мм)
R24
(мм)
S
(см)
22 11.08 С 1 н/о н/о +29.3 +22.8 68 +39 +39 очень
душно
1008.4 1002.3
23 11.08 СВ 1 н/о н/о +30.7 +22.9 63 +41 +41 опасность
перегрева
1008.8 1002.8
00 12.08 Ю 2 15 км {ливн. осадки} 9/8
[Cu med, cong Ac trans Ci sp]
+31.2 +22.2 59 +40 +42 очень
душно
1009.2 1003.2 +29.0 0.0
02 12.08 Ю 4 н/о н/о +32.7 +21.6 52 +41 +41 опасность
перегрева
1009.2 1003.2
01 12.08 Ю 3 н/о н/о +32.0 +21.5 54 +40 +40 очень
душно
1009.1 1003.1
03 12.08 Ю 4 20 км 9/3
[Cu med, cong Ac trans Ci sp]
+33.9 +20.7 46 +41 +47 опасность
перегрева
1009.0 1003.0
04 12.08 ЮЗ 3 н/о н/о +34.2 +20.9 46 +41 +41 опасность
перегрева
1008.5 1002.5
05 12.08 ЮЗ 5 н/о н/о +34.9 +20.5 43 +41 +41 опасность
перегрева
1008.0 1002.1
06 12.08 Ю 7 20 км 9/3
[Cu med, cong Ac trans Ci sp]
+33.9 +21.0 47 +41 +43 опасность
перегрева
1007.9 1001.9
08 12.08 ЮЗ 6 н/о н/о +33.0 +22.1 53 +42 +42 опасность
перегрева
1008.3 1002.3
07 12.08 Ю 4 н/о н/о +34.0 +21.4 48 +42 +42 опасность
перегрева
1008.2 1002.2
09 12.08 Ю 5 20 км 9/3
[Cu med, cong Ci fib]
+32.6 +21.8 53 +41 +41 опасность
перегрева
1008.2 1002.2
10 12.08 Ю 5 н/о н/о +31.3 +22.3 59 +40 +40 очень
душно
1009.0 1003.0
11 12.08 Ю 5 н/о н/о +30.8 +23.2 64 +41 +41 опасность
перегрева
1009.9 1003.9
12 12.08 Ю 4 20 км 9/0
[Ac trans Ci fib]
+30.6 +23.0 64 +41 +41 опасность
перегрева
1010.6 1004.6 +35.7
14 12.08 Ю 3 н/о н/о +30.0 +23.2 67 +40 +40 очень
душно
1011.1 1005.0
13 12.08 ЮЗ 5 н/о н/о +30.5 +22.7 63 +40 +40 очень
душно
1010.9 1004.9
15 12.08 ЮЗ 3 н/о н/о +29.7 +22.9 67 +40 +40 очень
душно
1011.2 1005.1
16 12.08 ЮЗ 2 н/о н/о +29.2 +23.2 70 +39 +39 очень
душно
1011.4 1005.3
17 12.08 З 1 н/о н/о +29.1 +23.3 71 +39 +39 очень
душно
1011.4 1005.3
18 12.08 СВ 2 20 км 8/1
[Cu hum Ac trans Ci fib]
+28.9 +23.3 72 +39 +39 очень
душно
1011.4 1005.3
20 12.08 С 3 н/о н/о +27.8 +23.2 76 +37 +37 очень
душно
1011.7 1005.6
19 12.08 С 2 н/о н/о +28.4 +23.1 73 +38 +38 очень
душно
1011.6 1005.5
21 12.08 С 3 20 км 9/1
[Cu med, cong Ac trans Ci fib]
+27.5 +22.9 76 +37 +37 очень
душно
1012.0 1005.9
22 12.08 С 3 н/о н/о +28.2 +22.9 73 +38 +38 очень
душно
1012.4 1006.3
23 12.08 С 1 н/о н/о +29.6 +22.6 66 +39 +39 очень
душно
1012.5 1006.4
00 13.08 З 3 30 км 9/1
[Cu med, cong Ac trans Ci fib]
+31.4 +21.3 55 +39 +44 очень
душно
1012.6 1006.6 +27.4
02 13.08 ЮЗ 5 н/о н/о +32.9 +20.4 48 +40 +40 очень
душно
1012.3 1006.3
01 13.08 ЮЗ 3 н/о н/о +32.8 +21.0 50 +40 +40 очень
душно
1012.6 1006.6
03 13.08 Ю 4 40 км 9/3
[Cu med, cong Ac trans Ci fib]
+33.8 +20.9 47 +41 +46 опасность
перегрева
1011.9 1005.9
04 13.08 Ю 4 н/о н/о +34.5 +20.8 45 +42 +42 опасность
перегрева
1011.6 1005.6
05 13.08 Ю 5 н/о н/о +35.8 +20.1 40 +42 +42 опасность
перегрева
1010.8 1004.9
06 13.08 ЮЗ 5 40 км 8/3
[Cb cap Ac cuf Ci ing]
+35.8 +18.8 37 +40 +43 очень
душно
1010.4 1004.5
08 13.08 ЮЗ 4 н/о н/о +32.7 +22.2 54 +42 +42 опасность
перегрева
1010.5 1004.5
07 13.08 Ю 5 н/о н/о +34.0 +21.1 47 +41 +41 опасность
перегрева
1010.3 1004.3
09 13.08 ЮЗ 5 50 км 9/5
[Cb cap Ac cuf Ci ing]
+31.3 +22.1 58 +40 +40 очень
душно
1010.5 1004.5
10 13.08 ЮВ 4 н/о н/о +31.4 +21.9 57 +40 +40 очень
душно
1011.7 1005.7
11 13.08 ЮЗ 2 н/о н/о +31.3 +21.8 57 +40 +40 очень
душно
1011.7 1005.7
12 13.08 ЮЗ 1 30 км 5/3
[Cu hum Ci fib]
+30.8 +21.9 59 +39 +39 очень
душно
1012.3 1006.2 +36.5
14 13.08 ЮЗ 2 н/о н/о +30.1 +22.3 63 +39 +39 очень
душно
1012.4 1006.3
13 13.08 СЗ 2 н/о н/о +30.4 +22.0 61 +39 +39 очень
душно
1012.3 1006.2
15 13.08 С 2 н/о н/о +29.5 +22.2 65 +38 +38 очень
душно
1012.4 1006.3
16 13.08 С 2 н/о н/о +28.9 +22.2 67 +38 +38 очень
душно
1012.2 1006.1
17 13.08 С 3 н/о н/о +28.5 +22.0 68 +37 +37 очень
душно
1012.1 1006.0
18 13.08 С 3 30 км 4/1
[Cu hum Ac trans Ci fib]
+27.9 +22.4 72 +37 +37 очень
душно
1011.7 1005.6
20 13.08 С 3 н/о н/о +27.4 +22.1 73 +36 +36 очень
душно
1011.7 1005.6
19 13.08 С 3 н/о н/о +27.7 +22.2 72 +36 +36 очень
душно
1011.5 1005.4
21 13.08 С 3 30 км 9/1
[Cu hum Ci sp]
+27.2 +22.2 74 +35 +36 очень
душно
1011.6 1005.5
22 13.08 С 3 н/о н/о +27.5 +22.0 72 +36 +36 очень
душно
1012.2 1006.1
23 13.08 С 2 н/о н/о +28.9 +21.9 66 +37 +37 очень
душно
1012.6 1006.5
00 14.08 ЮВ 1 30 км 9/8
[Cu Sc Ac trans Ci fib]
+30.1 +22.3 63 +39 +41 очень
душно
1012.6 1006.5 +27.0
02 14.08 СЗ 2 н/о н/о +34.2 +22.0 49 +43 +43 опасность
перегрева
1011.5 1005.5
01 14.08 С 1 н/о н/о +32.2 +22.3 56 +41 +41 опасность
перегрева
1012.3 1006.3
03 14.08 В 2 25 км 9/3
[Cu hum Ac trans Ci fib]
+34.4 +21.1 46 +42 +50 опасность
перегрева
1010.8 1004.8
04 14.08 Ю 3 н/о н/о +34.5 +20.8 45 +42 +42 опасность
перегрева
1010.8 1004.8
05 14.08 ЮЗ 4 н/о н/о +34.5 +22.6 50 +44 +44 опасность
перегрева
1010.4 1004.4
06 14.08 ЮЗ 3 20 км 9/3
[Cu hum Ci fib]
+34.6 +21.6 47 +43 +48 опасность
перегрева
1009.7 1003.7
08 14.08 Ю 4 н/о н/о +34.5 +21.2 46 +42 +42 опасность
перегрева
1009.3 1003.3
07 14.08 Ю 3 н/о н/о +36.3 +20.9 41 +43 +43 опасность
перегрева
1009.2 1003.3
09 14.08 ЮЗ 4 20 км 9/3
[Cu Sc Ci fib]
+33.7 +21.2 48 +41 +42 опасность
перегрева
1009.3 1003.3
10 14.08 ЮЗ 3 н/о н/о +32.4 +21.6 53 +41 +41 опасность
перегрева
1009.6 1003.6
11 14.08 З 2 н/о н/о +32.5 +22.0 54 +41 +41 опасность
перегрева
1010.0 1004.0
12 14.08 З 1 20 км 8/6
[Cu Sc Ac trans]
+32.3 +21.8 54 +41 +41 опасность
перегрева
1010.3 1004.3 +36.7
14 14.08 С 3 н/о н/о +31.8 +19.4 48 +38 +38 очень
душно
1010.2 1004.2
13 14.08 В 3 н/о н/о +32.6 +20.2 48 +39 +39 очень
душно
1010.3 1004.3
15 14.08 СВ 2 н/о н/о +31.2 +19.2 49 +37 +37 очень
душно
1009.7 1003.7
16 14.08 В 4 н/о н/о +30.9 +19.3 50 +37 +37 очень
душно
1009.5 1003.5
17 14.08 СВ 3 н/о н/о +30.3 +19.7 53 +36 +36 очень
душно
1009.3 1003.3
18 14.08 СВ 5 20 км 4/1
[Cu hum Ac trans]
+29.8 +20.1 56 +36 +36 очень
душно
1008.9 1002.8
20 14.08 СВ 3 н/о н/о +29.3 +21.3 62 +37 +37 очень
душно
1009.7 1003.6
19 14.08 СВ 3 н/о н/о +29.4 +20.6 59 +36 +36 очень
душно
1009.2 1003.1
21 14.08 В 3 20 км в посл. час ливневой дождь 9/9
[Cu med, cong]
+29.2 +21.4 63 +37 +37 очень
душно
1009.7 1003.6
22 14.08 В 2 н/о н/о +29.3 +21.8 64 +38 +38 очень
душно
1010.4 1004.3
23 14.08 В 2 н/о н/о +29.7 +21.9 63 +38 +38 очень
душно
1010.2 1004.1
00 15.08 В 4 20 км в посл. час ливневой дождь 9/9
[Cu med, cong Ac As]
+29.3 +22.3 66 +38 +39 очень
душно
1010.2 1004.1 +28.9 0.0
02 15.08 ЮВ 3 н/о н/о +30.2 +22.1 62 +39 +39 очень
душно
1010.8 1004.7
01 15.08 ЮВ 3 н/о н/о +29.7 +22.2 64 +39 +39 очень
душно
1010.4 1004.3
03 15.08 ЮВ 4 15 км слабый ливневой дождь 10/10
[Cu med, cong]
+30.0 +22.2 63 +39 +39 очень
душно
1010.6 1004.5
04 15.08 Ю 5 н/о н/о +31.0 +21.8 58 +39 +39 очень
душно
1010.0 1004.0
05 15.08 Ю 4 н/о н/о +29.9 +22.4 64 +39 +39 очень
душно
1010.3 1004.2
06 15.08 Ю 2 20 км в посл. час ливневой дождь 10/9
[Cu med, cong Ac As]
+30.0 +22.2 63 +39 +39 очень
душно
1009.9 1003.8 0.0
08 15.08 Ю 3 н/о н/о +30.0 +22.4 64 +39 +39 очень
душно
1009.4 1003.3
07 15.08 З 2 н/о н/о +30.9 +22.5 61 +40 +40 очень
душно
1009.3 1003.3
09 15.08 ЮЗ 4 20 км в посл. час ливневой дождь 9/9
[Cu Sc]
+29.3 +23.0 69 +39 +39 очень
душно
1009.4 1003.3
10 15.08 ЮЗ 4 н/о н/о +28.8 +23.5 73 +39 +39 очень
душно
1009.9 1003.8
11 15.08 Ю 3 н/о н/о +28.8 +23.5 73 +39 +39 очень
душно
1010.1 1004.0
12 15.08 Ю 3 20 км {ливн. осадки} 9/9
[Cu Sc]
+28.7 +23.6 74 +39 +39 очень
душно
1010.3 1004.2 +32.2 0.0
14 15.08 ЮВ 3 н/о н/о +28.8 +22.8 70 +38 +38 очень
душно
1010.0 1003.9
13 15.08 Ю 3 н/о н/о +28.9 +23.6 73 +39 +39 очень
душно
1010.4 1004.3
15 15.08 Ю 3 н/о н/о +27.0 +24.3 85 +38 +38 очень
душно
1009.9 1003.8
16 15.08 ЮЗ 3 н/о н/о +26.9 +23.8 83 +37 +37 очень
душно
1009.5 1003.4
17 15.08 ЮЗ 1 н/о н/о +26.9 +23.8 83 +37 +37 очень
душно
1009.1 1003.0
18 15.08 Ю 3 10 км в посл. час ливневой дождь 10/10
[Cu med, cong]
+27.1 +23.4 80 +37 +37 очень
душно
1008.9 1002.8 3
20 15.08 Ю 2 н/о н/о +26.9 +23.4 81 +36 +36 очень
душно
1008.4 1002.3
19 15.08 ЮЗ 2 н/о н/о +26.8 +23.9 84 +37 +37 очень
душно
1008.6 1002.5
21 15.08 Ю 2 15 км в посл. час ливневой дождь 9/9 300 м
[Cu med, cong]
+27.0 +23.3 80 +36 +36 очень
душно
1008.6 1002.5
22 15.08 ЮЗ 2 н/о н/о +27.3 +23.1 78 +37 +37 очень
душно
1009.3 1003.2
23 15.08 С 1 н/о н/о +27.8 +23.4 77 +38 +38 очень
душно
1009.6 1003.5
00 16.08 Ю 3 15 км {ливн. осадки} 10/10
[Cu med, cong]
+28.6 +22.8 71 +38 +38 очень
душно
1009.8 1003.7 +26.6 3
02 16.08 Ю 2 н/о н/о +27.1 +24.0 83 +37 +37 очень
душно
1010.2 1004.1
01 16.08 Ю 4 н/о н/о +28.1 +23.0 74 +38 +38 очень
душно
1010.0 1003.9
03 16.08 Ю 3 30 км в посл. час ливневой дождь 9/8
[Cu med, cong Ac As]
+28.9 +23.3 72 +39 +41 очень
душно
1009.2 1003.1
04 16.08 Ю 4 н/о н/о +30.7 +22.9 63 +41 +41 опасность
перегрева
1008.8 1002.8
05 16.08 З 8 н/о н/о +25.8 +22.7 83 +34 +34 очень
душно
1009.4 1003.3
06 16.08 СВ 2 5000 м гроза, ливневой дождь 10/10
[Cb cap]
+26.0 +23.5 86 +35 +35 очень
душно
1009.4 1003.3 16
08 16.08 С 2 н/о н/о +26.2 +23.9 87 +36 +36 очень
душно
1009.4 1003.3
07 16.08 В 1 н/о н/о +26.7 +23.8 84 +37 +37 очень
душно
1009.6 1003.5
09 16.08 СЗ 2 15 км в посл. час ливневой дождь 9/9 200 м
[Cu med, cong Ac As]
+26.7 +23.8 84 +37 +37 очень
душно
1009.3 1003.2
10 16.08 СВ 2 н/о н/о +26.9 +23.6 82 +37 +37 очень
душно
1009.7 1003.6
11 16.08 С 2 н/о н/о +26.7 +23.8 84 +37 +37 очень
душно
1010.3 1004.2
12 16.08 С 4 15 км {ливн. осадки} 9/9
[Cu med, cong]
+26.6 +23.5 83 +36 +36 очень
душно
1010.7 1004.6 +31.0 19
14 16.08 С 6 н/о н/о +26.2 +20.8 72 +33 +33 очень
душно
1011.2 1005.1
13 16.08 С 4 н/о н/о +26.6 +21.4 73 +34 +34 очень
душно
1011.1 1005.0
15 16.08 С 6 н/о н/о +25.5 +20.8 75 +32 +32 очень
душно
1011.3 1005.1
16 16.08 СВ 4 н/о н/о +25.1 +19.7 72 +31 +31 очень
душно
1011.4 1005.2
17 16.08 СВ 5 н/о н/о +24.7 +19.3 72 +30 +30 очень
душно
1011.3 1005.1
18 16.08 СВ 4 15 км 9/9
[Cu med, cong]
+24.4 +18.8 71 +29 +29 душно 1011.2 1005.0
20 16.08 СВ 5 н/о н/о +23.5 +17.3 68 +27 +27 душно 1011.5 1005.3
19 16.08 СВ 5 н/о н/о +24.2 +17.7 67 +28 +28 душно 1011.4 1005.2
21 16.08 СВ 5 25 км 4/1
[Cu hum Ac trans Ci fib]
+23.2 +16.5 66 +28 +28 душно 1011.8 1005.6
22 16.08 СВ 3 н/о н/о +23.3 +16.4 65 +28 +28 душно 1012.4 1006.2
23 16.08 С 4 н/о н/о +24.8 +15.7 57 +28 +28 жарко 1012.4 1006.2
00 17.08 С 4 40 км 3/1
[Cu hum Ac trans]
+25.9 +15.3 52 +29 +34 душно 1012.2 1006.0 +23.1
02 17.08 С 5 н/о н/о +29.2 +13.8 39 +31 +31 жарко 1011.1 1005.0
01 17.08 С 5 н/о н/о +27.6 +15.3 47 +30 +30 жарко 1011.8 1005.7
03 17.08 СВ 4 40 км 4/3
[Cu hum Ci sp]
+29.2 +13.4 38 +31 +39 жарко 1010.4 1004.3
04 17.08 С 5 н/о н/о +30.5 +13.3 35 +32 +32 жарко 1009.6 1003.6
05 17.08 СВ 5 н/о н/о +31.8 +13.1 32 +33 +33 жарко 1009.1 1003.1
06 17.08 СВ 5 40 км 3/3
[Cu Sc Ci fib]
+31.9 +11.7 29 +32 +36 жарко 1008.5 1002.5
08 17.08 СВ 6 н/о н/о +30.5 +12.0 32 +31 +31 жарко 1008.4 1002.4
07 17.08 С 5 н/о н/о +32.2 +12.4 30 +33 +33 жарко 1008.4 1002.4
09 17.08 СВ 6 40 км 4/3
[Cu Sc Ci fib]
+29.5 +12.9 36 +31 +31 жарко 1008.8 1002.7
10 17.08 СВ 5 н/о н/о +28.0 +12.8 39 +29 +29 жарко 1009.8 1003.7
11 17.08 С 6 н/о н/о +26.3 +12.4 42 +28 +28 жарко 1010.5 1004.4
12 17.08 С 6 40 км 1/1
[Cu hum]
+25.3 +12.2 44 +27 +27 жарко 1011.6 1005.4 +32.7
14 17.08 С 6 н/о н/о +23.4 +11.5 47 +26 +26 жарко 1011.8 1005.6
13 17.08 СВ 6 н/о н/о +24.3 +12.0 46 +26 +26 жарко 1011.8 1005.6
15 17.08 С 5 н/о н/о +22.8 +11.5 49 +25 +25 комфорт 1012.0 1005.8
16 17.08 С 5 н/о н/о +22.4 +11.8 51 +25 +25 комфорт 1012.0 1005.8
17 17.08 С 4 н/о н/о +21.7 +12.0 54 +24 +24 комфорт 1012.1 1005.8
18 17.08 С 4 40 км ясно +21.2 +12.4 57 +23 +23 комфорт 1012.2 1005.9
20 17.08 СВ 4 н/о н/о +20.1 +12.9 63 +22 +22 комфорт 1012.1 1005.8
19 17.08 С 4 н/о н/о +20.6 +12.8 61 +23 +23 комфорт 1012.2 1005.9
21 17.08 С 3 40 км 4/0
[Ci fib]
+19.9 +12.9 64 +22 +22 комфорт 1012.7 1006.4
22 17.08 С 4 н/о н/о +19.9 +12.7 63 +22 +22 комфорт 1012.9 1006.6
23 17.08 С 4 н/о н/о +21.7 +12.6 56 +24 +24 комфорт 1013.0 1006.7
00 18.08 С 3 40 км 6/1
[Cu hum Ci fib]
+24.2 +13.1 50 +26 +33 жарко 1012.6 1006.4 +19.7
02 18.08 З 1 н/о н/о +27.0 +12.6 41 +29 +29 жарко 1011.9 1005.8
01 18.08 С 2 н/о н/о +26.5 +14.3 47 +29 +29 жарко 1012.6 1006.5
03 18.08 В 2 30 км 6/1
[Cu hum Ac trans Ci fib]
+29.1 +13.4 38 +31 +43 жарко 1011.2 1005.1
04 18.08 Ю 3 н/о н/о +29.2 +13.4 38 +31 +31 жарко 1010.5 1004.4
05 18.08 Ю 4 н/о н/о +29.2 +15.0 42 +32 +32 душно 1010.0 1003.9
06 18.08 ЮЗ 4 30 км 6/1
[Cu hum Ac trans Ci fib]
+30.2 +15.9 42 +33 +38 душно 1009.4 1003.4
08 18.08 ЮЗ 4 н/о н/о +29.4 +14.8 41 +32 +32 душно 1008.8 1002.7
07 18.08 ЮЗ 3 н/о н/о +29.5 +15.3 42 +32 +32 душно 1009.1 1003.0
09 18.08 Ю 4 30 км 3/0
[Ci fib]
+28.5 +17.4 51 +33 +33 очень
душно
1009.1 1003.0
10 18.08 ЮЗ 5 н/о н/о +26.7 +17.5 57 +31 +31 душно 1010.0 1003.9
11 18.08 ЮЗ 4 н/о н/о +26.5 +17.6 58 +31 +31 душно 1010.5 1004.4
12 18.08 Ю 2 30 км 3/0
[Ac trans Ci fib]
+26.4 +17.5 58 +31 +31 душно 1010.9 1004.8 +30.6
14 18.08 СВ 1 н/о н/о +25.6 +17.8 62 +30 +30 душно 1011.0 1004.8
13 18.08 ЮЗ 2 н/о н/о +26.1 +17.2 58 +30 +30 душно 1010.9 1004.8
15 18.08 С 2 н/о н/о +24.5 +17.7 66 +29 +29 душно 1011.4 1005.2
16 18.08 С 4 н/о н/о +23.3 +17.5 70 +29 +29 душно 1011.4 1005.2
17 18.08 С 3 н/о н/о +22.8 +17.5 72 +28 +28 душно 1011.6 1005.4
18 18.08 С 5 30 км 1/0
[Ci fib]
+22.3 +17.5 74 +27 +27 душно 1011.5 1005.3
20 18.08 С 4 н/о н/о +21.5 +16.9 75 +25 +25 комфорт 1012.5 1006.2
19 18.08 С 5 н/о н/о +21.8 +17.2 75 +26 +26 душно 1012.2 1005.9
21 18.08 С 5 20 км 9/1
[Cu hum Ci sp]
+21.3 +16.9 76 +25 +25 комфорт 1012.8 1006.5

 

Местоположение метеостанции Hiroshima (Япония): широта 34.40 долгота 132.46 высота над уровнем моря 53 м.

В архиве по умолчанию представлена погода в Hiroshima за последнюю неделю. Архивные данные за месяц целиком и за предыдущие месяцы, начиная с января 2011 года, Вы можете получить, выбрав интересующий диапазон дат из раскрывающегося списка и нажав кнопку "Ввод!".


*Определитесь, кто Вы:
робот инопланетянин человек

Внимание! Время в таблицах - всемирное. Для получения местного времени необходимо прибавить поправку, которая в Hiroshima равна 9 ч.

Смотрите также архив погоды в соседних городах и на ближайших метеорологических станциях:

Погода в Kure (Япония) (21 км)
Погода в Hamada (Япония) (67 км)
Погода в Matsuyama (Япония) (68 км)
Погода в Fukuyama (Япония) (73 км)
Погода в Yamaguchi (Япония) (96 км)
Погода в Hagi (Япония) (97 км)
Погода в Tadotsu (Япония) (119 км)
Погода в Matsue (Япония) (129 км)
Погода в Uwajima (Япония) (130 км)
Погода в Okayama (Япония) (136 км)

Пояснения к столбцам:

Ветер - указаны скорость ветра в м/с - средняя за 10 мин, порывы в срок и между сроками (в фигурных скобках) и направление, откуда дует ветер: С - северный, СВ - северо-восточный, В - восточный, ЮВ - юго-восточный, Ю - южный, ЮЗ - юго-западный, З - западный, СЗ - северо-западный.
Видимость - горизонтальная дальность видимости в метрах или километрах. При видимости от 1 до 10 км при отсутствии осадков обычно наблюдается дымка, при ухудшении видимости до 1 км и менее - туман. В сухую погоду видимость может ухудшаться дымом, пылью или мглою.
Явления - указаны атмосферные явления, наблюдавшиеся в срок или в последний час перед сроком; фигурными скобками обозначены явления, наблюдавшиеся между сроками (за 1-3 часа до срока); квадратными скобками обозначены град или гололедные отложения с указанием их диаметра в мм.
Облачность - указаны через наклонную черту общая и нижняя облачность в баллах и высота нижней границы облаков в метрах; квадратными скобками обозначены формы облаков: Ci - перистые, Cs - перисто-слоистые, Cc - перисто-кучевые, Ac - высококучевые, As - высокослоистые, Sc - слоисто-кучевые, Ns - слоисто-дождевые, Cu - кучевые, Cb - кучево-дождевые. Подробнее классификацию облаков см. в Атласе облаков (PDF).
T - Температура воздуха - температура, измеренная на высоте 2 м над землей.
Td - Температура точки росы - температура, при понижении до которой содержащийся в воздухе водяной пар достигнет насыщения.
f - Относительная влажность воздуха - влажноcть воздуха, измеренная на высоте 2 м над землей.
Te - Эффективная температура - температура, которую ощущает одетый по сезону человек в тени. Характеристика душности погоды. При расчете учитывается влияние влажности воздуха и скорости ветра на теплоощущения человека.
Tes - Эффективная температура на солнце - температура, которую ощущает человек, с поправкой на солнечный нагрев. Характеристика знойности погоды. Зависит от высоты солнца над горизонтом, облачности и скорости ветра. Ночью, в пасмурную погоду, а также при ветре 12 м/с и более поправка равна нулю.
P - Атмосферное давление - приведенное к уровню моря атмосферное давление.
Po - Атмосферное давление - измеренное на уровне метеостанции атмосферное давление.
Tmin - Минимальная температура - минимум температуры воздуха на высоте 2 м над землей.
Tmax - Максимальная температура - максимум температуры воздуха на высоте 2 м над землей.
R - Количество осадков - Количество выпавших осадков за период времени, мм. При наведении курсора мыши на число - период времени, за который выпало указанное количество осадков.
R24 - Количество осадков - Количество выпавших осадков за 24 часа, мм.
S - Снежный покров - Высота снежного покрова, см. При наведении курсора мыши на число - состояние снежного покрова и степень покрытия местности в баллах.